Location: Trani
(41.2830°N, 16.4170°E)
Time: 03:49:18
(UTC+02:00)

ISS - Pass Details

Date: 17 May 2021
Orbit: 417 x 422 km, 51.6° (Epoch: 14 June)

Event Time Altitude Azimuth Distance (km) Brightness Sun altitude
Rises 23:41:27 0° 296° (WNW) 2,366 0.7 -27.1°
Reaches altitude 10° 23:44:18 10° 322° (NW) 1,504 -0.1 -27.3°
Maximum altitude 23:46:13 14° 357° (N) 1,271 -0.5 -27.4°
Drops below altitude 10° 23:48:09 10° 32° (NNE) 1,506 -0.5 -27.5°
Enters shadow 23:49:58 - 51° (NE) 2,019 0.0 -27.6°
